User: anonymous   Login
Location: Unspecified
(0.0000°N, 0.0000°E)
Time: 11:10:46
(UTC+02:00)
Language:

Cosmos 1092 Rocket - Orbit

View from above orbital plane
View from above orbital plane
View from above satellite
View from above satellite

Ground track
Ground track

The orbit data is extracted from the following two-line orbital elements,

1 11327U 79030B   16145.76593694  .00000057  00000-0  42145-4 0  9991
2 11327  82.9515 224.2560 0027740 184.0122 291.9080 13.76972052865689
Epoch (UTC): 24 May 2016 18:22:56
Eccentricity: 0.0027740
inclination: 82.9515°
perigee height: 954 km
apogee height: 995 km
right ascension of ascending node: 224.2560°
argument of perigee: 184.0122°
revolutions per day: 13.76972052
mean anomaly at epoch: 291.9080°
orbit number at epoch: 86568

The dashed part of the orbit path shows where the satellite is in the earth's shadow,  

DLR